Weather History for Sexton Summit, OR

Change the Weather History Date:

Tuesday, January 28, 2014

  Actual Average Record
Temperature  
Mean Temperature 44 °F -  
Max Temperature 48 °F 39 °F 50 °F (2012)
Min Temperature 39 °F 31 °F 21 °F (2002)
Degree Days  
Heating Degree Days 22    
Moisture  
Dew Point 42 °F    
Average Humidity 95    
Maximum Humidity 100    
Minimum Humidity 70    
Precipitation  
Precipitation 0.14 in - - ()
Sea Level Pressure  
Sea Level Pressure 30.16 in    
Wind  
Wind Speed 11 mph (SSE)    
Max Wind Speed 15 mph    
Max Gust Speed 23 mph    
Visibility 4 miles    
Events Fog , Rain    
Averages and records for this station are not official NWS values.
T = Trace of Precipitation, MM = Missing Value Source: NWS Daily Summary

Daily Weather History Graph

Daily Weather History Graph

Search for Another Location

Airport:

Trip Planner

Search our weather history database for the weather conditions in past years. The results will help you decide how hot, cold, wet, or windy it might be!

Date:

Astronomy

Jan. 28, 2014 Rise Set
Actual Time 7:31 AM PST 5:21 PM PST
Civil Twilight 7:01 AM PST 5:52 PM PST
Nautical Twilight 6:27 AM PST 6:26 PM PST
Astronomical Twilight 5:54 AM PST 6:59 PM PST
Moon 5:19 AM PST (1/28) 3:17 PM PST (1/28)
Length of Visible Light 10h 50m
Length of Day
9h 50m
Waning Crescent, 6% of the Moon is Illuminated
Jan 28
Waning Crescent
Jan 30
New
Feb 6
First Quarter
Feb 14
Full
Feb 22
Last Quarter

Hourly Weather History & Observations

Time (PST) Temp. Windchill Dew Point Humidity Pressure Visibility Wind Dir Wind Speed Gust Speed Precip Events Conditions
12:56 AM 42.1 °F 36.6 °F 33.1 °F 70% 30.18 in 10.0 mi SE 9.2 mph - 0.00 in Rain Light Rain
1:19 AM 43.0 °F 37.2 °F 34.0 °F 71% 30.19 in 10.0 mi SSE 10.4 mph - 0.00 in   Overcast
1:56 AM 42.1 °F 36.1 °F 35.1 °F 76% 30.17 in 10.0 mi SSE 10.4 mph - 0.00 in   Overcast
2:25 AM 42.1 °F 36.1 °F 35.1 °F 76% 30.19 in 10.0 mi SSE 10.4 mph - N/A   Overcast
2:46 AM 41.0 °F 34.7 °F 36.0 °F 82% 30.19 in 10.0 mi SSE 10.4 mph - 0.00 in Rain Light Rain
2:56 AM 41.0 °F 34.7 °F 36.0 °F 82% 30.18 in 10.0 mi SE 10.4 mph - 0.00 in Rain Light Rain
3:15 AM 39.9 °F 33.4 °F 37.9 °F 93% 30.18 in 5.0 mi SE 10.4 mph - 0.01 in Rain Light Rain
3:42 AM 41.0 °F 34.7 °F 39.0 °F 93% 30.19 in 5.0 mi SSE 10.4 mph - 0.02 in Rain Light Rain
3:56 AM 41.0 °F 34.7 °F 39.9 °F 96% 30.18 in 7.0 mi SSE 10.4 mph - 0.02 in Rain Light Rain
4:11 AM 41.0 °F 34.7 °F 39.9 °F 96% 30.18 in 3.0 mi SE 10.4 mph - 0.01 in Rain Light Rain
4:18 AM 39.9 °F 32.9 °F 39.9 °F 100% 30.18 in 1.8 mi SSE 11.5 mph - 0.02 in Rain Light Rain
4:24 AM 41.0 °F 35.2 °F 39.9 °F 96% 30.18 in 0.8 mi SSE 9.2 mph - 0.02 in Rain Light Rain
4:29 AM 41.0 °F 35.2 °F 39.9 °F 96% 30.19 in 0.2 mi SSE 9.2 mph - 0.02 in Fog , Rain Light Rain
4:40 AM 41.0 °F 34.7 °F 39.9 °F 96% 30.18 in 0.2 mi SSE 10.4 mph - 0.03 in Fog , Rain Light Rain
4:49 AM 41.0 °F 34.7 °F 39.9 °F 96% 30.18 in 0.2 mi SSE 10.4 mph - 0.04 in Fog , Rain Light Rain
4:56 AM 41.0 °F 34.7 °F 41.0 °F 100% 30.18 in 0.2 mi SSE 10.4 mph - 0.04 in Fog , Rain Light Rain
5:56 AM 41.0 °F 34.7 °F 41.0 °F 100% 30.19 in 0.2 mi SE 10.4 mph - 0.01 in Fog Fog
6:56 AM 41.0 °F 33.9 °F 41.0 °F 100% 30.20 in 0.2 mi SE 12.7 mph - 0.00 in Fog , Rain Light Rain
7:15 AM 41.0 °F 33.5 °F 41.0 °F 100% 30.19 in 0.5 mi SE 13.8 mph - 0.00 in Fog , Rain Light Rain
7:49 AM 41.0 °F 33.9 °F 41.0 °F 100% 30.20 in 0.8 mi SE 12.7 mph - 0.00 in Rain Light Rain
7:56 AM 41.0 °F 33.9 °F 41.0 °F 100% 30.22 in 0.8 mi SE 12.7 mph - 0.00 in Rain Light Rain
8:20 AM 41.0 °F 33.9 °F 41.0 °F 100% 30.19 in 1.0 mi SE 12.7 mph - 0.00 in Rain Light Rain
8:27 AM 41.0 °F 33.5 °F 41.0 °F 100% 30.19 in 0.5 mi SE 13.8 mph - 0.00 in Fog , Rain Light Rain
8:44 AM 41.0 °F 33.1 °F 41.0 °F 100% 30.19 in 0.2 mi SSE 15.0 mph - 0.01 in Fog , Rain Light Rain
8:56 AM 41.0 °F 33.1 °F 41.0 °F 100% 30.21 in 0.2 mi SE 15.0 mph - 0.01 in Fog Fog
9:46 AM 42.1 °F 34.9 °F 42.1 °F 100% 30.19 in 0.5 mi SE 13.8 mph - 0.00 in Fog Fog
9:56 AM 42.1 °F 35.2 °F 42.1 °F 100% 30.20 in 0.5 mi SE 12.7 mph - 0.00 in Fog Fog
10:07 AM 42.1 °F 35.7 °F 42.1 °F 100% 30.19 in 1.5 mi SE 11.5 mph - N/A   Overcast
10:12 AM 43.0 °F 36.0 °F 42.1 °F 97% 30.19 in 3.0 mi SE 13.8 mph - N/A   Overcast
11:41 AM 44.1 °F 38.1 °F 43.0 °F 96% 30.19 in 10.0 mi SE 11.5 mph - 0.00 in   Overcast
11:56 AM 45.0 °F 39.3 °F 43.0 °F 93% 30.18 in 10.0 mi SE 11.5 mph - 0.00 in   Overcast
12:38 PM 45.0 °F 40.1 °F 44.1 °F 97% 30.18 in 10.0 mi SSE 9.2 mph - N/A   Overcast
12:56 PM 46.0 °F 41.0 °F 45.0 °F 96% 30.17 in 10.0 mi South 10.4 mph - N/A   Overcast
1:18 PM 46.9 °F - 45.0 °F 93% 30.16 in 10.0 mi South 10.4 mph - N/A   Overcast
1:56 PM 46.0 °F 39.9 °F 44.1 °F 93% 30.14 in 10.0 mi South 13.8 mph - N/A   Overcast
2:22 PM 48.0 °F - 45.0 °F 89% 30.13 in 10.0 mi South 9.2 mph - N/A   Mostly Cloudy
2:32 PM 46.9 °F - 44.1 °F 90% 30.14 in 10.0 mi South 9.2 mph - N/A   Mostly Cloudy
2:45 PM 46.9 °F - 44.1 °F 90% 30.15 in 10.0 mi South 9.2 mph - N/A   Overcast
2:56 PM 46.0 °F 40.2 °F 44.1 °F 93% 30.13 in 10.0 mi South 12.7 mph - N/A   Overcast
3:15 PM 46.0 °F 40.2 °F 45.0 °F 96% 30.14 in 10.0 mi South 12.7 mph - N/A   Overcast
3:56 PM 45.0 °F 38.9 °F 44.1 °F 97% 30.16 in 10.0 mi SSW 12.7 mph 18.4 mph N/A   Overcast
4:31 PM 44.1 °F 37.1 °F 44.1 °F 100% 30.14 in 1.5 mi SSW 15.0 mph - N/A   Overcast
4:34 PM 44.1 °F 38.1 °F 44.1 °F 100% 30.14 in 0.8 mi SSW 11.5 mph - N/A   Overcast
4:38 PM 44.1 °F 37.4 °F 44.1 °F 100% 30.14 in 0.2 mi SSW 13.8 mph - N/A Fog Fog
4:56 PM 45.0 °F 39.3 °F 45.0 °F 100% 30.15 in 0.2 mi South 11.5 mph 20.7 mph N/A Fog Fog
5:15 PM 45.0 °F 38.2 °F 45.0 °F 100% 30.14 in 0.2 mi South 15.0 mph - N/A Fog Fog
5:31 PM 45.0 °F 38.2 °F 45.0 °F 100% 30.13 in 0.2 mi South 15.0 mph - N/A Fog Fog
5:40 PM 45.0 °F 38.2 °F 45.0 °F 100% 30.13 in 0.2 mi South 15.0 mph - N/A Fog Fog
5:56 PM 46.0 °F 39.9 °F 46.0 °F 100% 30.12 in 0.2 mi South 13.8 mph 20.7 mph N/A Fog Fog
6:56 PM 46.0 °F 39.6 °F 46.0 °F 100% 30.12 in 0.2 mi SSW 15.0 mph 23.0 mph 0.02 in Fog , Rain Light Rain
7:47 PM 46.0 °F 40.2 °F 46.0 °F 100% 30.13 in 0.2 mi SW 12.7 mph - 0.02 in Fog , Rain Light Rain
7:56 PM 46.9 °F - 46.9 °F 100% 30.12 in 0.2 mi SW 12.7 mph - 0.02 in Fog , Rain Light Rain
8:21 PM 46.9 °F - 46.9 °F 100% 30.12 in 0.2 mi SSW 13.8 mph - 0.01 in Fog , Rain Light Rain
8:56 PM 46.9 °F - 46.9 °F 100% 30.12 in 0.2 mi SSW 15.0 mph 20.7 mph 0.01 in Fog Fog
9:56 PM 46.9 °F - 46.9 °F 100% 30.11 in 0.2 mi SSW 12.7 mph - 0.00 in Fog , Rain Light Rain
10:56 PM 46.9 °F - 46.9 °F 100% 30.09 in 0.2 mi SSW 11.5 mph - 0.01 in Fog , Rain Light Rain
11:56 PM 46.9 °F - 46.9 °F 100% 30.06 in 0.2 mi SSW 12.7 mph 19.6 mph 0.00 in Fog Fog